Time,TemperatureF,DewpointF,PressureIn,WindDirection,WindDirectionDegrees,WindSpeedMPH,WindSpeedGustMPH,Humidity,HourlyPrecipIn,Conditions,Clouds,dailyrainin,SoftwareType,DateUTC
2013-08-27 00:00:00,59.4,56.1,22.63,ENE,59,0.0,0.0,89,0.00,,---,0.00,VWS V14.01,2013-08-27 07:00:00,
2013-08-27 00:20:00,59.5,56.9,22.63,ENE,59,0.0,0.0,91,0.00,,---,0.00,VWS V14.01,2013-08-27 07:20:00,
2013-08-27 00:40:00,58.1,55.2,22.63,ENE,59,0.0,0.0,90,0.00,,---,0.00,VWS V14.01,2013-08-27 07:40:00,
2013-08-27 01:00:00,58.8,56.2,22.63,ENE,59,0.0,0.0,91,0.00,,---,0.00,VWS V14.01,2013-08-27 08:00:00,
2013-08-27 01:20:00,58.3,55.7,22.63,SSW,203,0.0,0.0,91,0.00,,---,0.00,VWS V14.01,2013-08-27 08:20:00,
2013-08-27 01:40:00,58.5,55.8,22.63,SE,135,2.7,2.7,91,0.00,,---,0.00,VWS V14.01,2013-08-27 08:40:00,
2013-08-27 02:00:00,59.7,57.1,22.63,South,180,2.7,4.0,91,0.00,,---,0.00,VWS V14.01,2013-08-27 09:00:00,
2013-08-27 02:20:00,59.9,57.6,22.63,South,180,0.0,2.7,92,0.00,,---,0.00,VWS V14.01,2013-08-27 09:20:00,
2013-08-27 02:40:00,59.5,57.2,22.63,NNW,346,0.0,2.7,92,0.00,,---,0.00,VWS V14.01,2013-08-27 09:40:00,
2013-08-27 03:00:00,59.4,56.7,22.63,North,6,0.0,2.7,91,0.00,,---,0.00,VWS V14.01,2013-08-27 10:00:00,
2013-08-27 03:20:00,59.0,56.1,22.63,NNE,14,0.0,4.0,90,0.00,,---,0.00,VWS V14.01,2013-08-27 10:20:00,
2013-08-27 03:40:00,59.0,56.1,22.63,North,0,0.0,2.7,90,0.00,,---,0.00,VWS V14.01,2013-08-27 10:40:00,
2013-08-27 04:00:00,59.5,56.6,22.63,SE,133,0.0,4.9,90,0.00,,---,0.00,VWS V14.01,2013-08-27 11:00:00,
2013-08-27 04:20:00,60.1,56.5,22.63,SE,135,0.0,2.7,88,0.00,,---,0.00,VWS V14.01,2013-08-27 11:20:00,
2013-08-27 04:40:00,59.4,51.8,22.63,North,2,0.0,2.7,76,0.00,,---,0.00,VWS V14.01,2013-08-27 11:40:00,
2013-08-27 05:00:00,58.8,52.7,22.63,North,2,0.0,0.0,80,0.00,,---,0.00,VWS V14.01,2013-08-27 12:00:00,
2013-08-27 05:20:00,58.8,53.3,22.63,North,349,0.0,0.0,82,0.00,,---,0.00,VWS V14.01,2013-08-27 12:20:00,
2013-08-27 05:40:00,59.4,53.9,22.63,North,349,0.0,0.0,82,0.00,,---,0.00,VWS V14.01,2013-08-27 12:40:00,
2013-08-27 06:00:00,60.1,55.2,22.63,North,357,0.0,0.0,84,0.00,,---,0.00,VWS V14.01,2013-08-27 13:00:00,
2013-08-27 06:20:00,59.7,54.6,22.63,NW,323,2.7,3.6,83,0.00,,---,0.00,VWS V14.01,2013-08-27 13:20:00,
2013-08-27 06:40:00,60.3,54.1,22.63,North,357,0.0,3.1,80,0.00,,---,0.00,VWS V14.01,2013-08-27 13:40:00,
2013-08-27 07:00:00,61.9,56.3,22.63,East,87,0.0,3.6,82,0.00,,---,0.00,VWS V14.01,2013-08-27 14:00:00,
2013-08-27 07:20:00,61.3,53.4,22.63,North,357,0.0,3.1,75,0.00,,---,0.00,VWS V14.01,2013-08-27 14:20:00,
2013-08-27 07:40:00,61.5,53.9,22.63,NNW,339,2.7,3.6,76,0.00,,---,0.00,VWS V14.01,2013-08-27 14:40:00,
2013-08-27 08:00:00,63.0,54.2,22.63,NNW,339,0.0,3.1,73,0.00,,---,0.00,VWS V14.01,2013-08-27 15:00:00,
2013-08-27 08:20:00,68.4,55.7,22.63,SE,130,4.0,7.2,64,0.00,,---,0.00,VWS V14.01,2013-08-27 15:20:00,
2013-08-27 08:40:00,70.9,53.4,22.63,SSE,156,4.0,8.3,54,0.00,,---,0.00,VWS V14.01,2013-08-27 15:40:00,
2013-08-27 09:00:00,71.8,53.8,22.63,SSE,168,7.6,11.0,53,0.00,,---,0.00,VWS V14.01,2013-08-27 16:00:00,
2013-08-27 09:20:00,72.9,54.2,22.63,SE,146,8.1,11.0,52,0.00,,---,0.00,VWS V14.01,2013-08-27 16:20:00,
2013-08-27 09:40:00,73.0,54.4,22.63,NNE,21,3.6,12.8,52,0.00,,---,0.00,VWS V14.01,2013-08-27 16:40:00,
2013-08-27 10:00:00,74.1,53.2,22.63,South,181,4.0,10.1,48,0.00,,---,0.00,VWS V14.01,2013-08-27 17:00:00,
2013-08-27 10:20:00,75.9,54.8,22.63,SE,133,6.3,10.5,48,0.00,,---,0.00,VWS V14.01,2013-08-27 17:20:00,
2013-08-27 10:40:00,76.8,52.7,22.63,SE,138,8.3,10.5,43,0.00,,---,0.00,VWS V14.01,2013-08-27 17:40:00,
2013-08-27 11:00:00,77.2,53.0,22.63,SSW,203,5.8,11.0,43,0.00,,---,0.00,VWS V14.01,2013-08-27 18:00:00,
2013-08-27 11:20:00,77.5,53.3,22.63,South,180,8.1,12.8,43,0.00,,---,0.00,VWS V14.01,2013-08-27 18:20:00,
2013-08-27 11:40:00,77.9,51.7,22.63,SSW,210,5.8,12.3,40,0.00,,---,0.00,VWS V14.01,2013-08-27 18:40:00,
2013-08-27 12:00:00,79.5,53.1,22.63,SSE,147,5.4,12.3,40,0.00,,---,0.00,VWS V14.01,2013-08-27 19:00:00,
2013-08-27 12:20:00,79.9,53.4,22.63,South,173,5.8,11.0,40,0.00,,---,0.00,VWS V14.01,2013-08-27 19:20:00,
2013-08-27 12:40:00,80.1,53.6,22.63,SE,142,3.6,11.0,40,0.00,,---,0.00,VWS V14.01,2013-08-27 19:40:00,
2013-08-27 13:00:00,80.2,53.8,22.63,WNW,286,3.1,11.0,40,0.00,,---,0.00,VWS V14.01,2013-08-27 20:00:00,
2013-08-27 13:20:00,87.4,58.7,22.63,South,169,4.9,8.3,38,0.00,,---,0.00,VWS V14.01,2013-08-27 20:20:00,
2013-08-27 13:40:00,92.3,62.3,22.63,SE,130,3.1,11.0,37,0.00,,---,0.00,VWS V14.01,2013-08-27 20:40:00,
2013-08-27 14:00:00,93.6,62.6,22.63,SE,146,8.3,8.7,36,0.00,,---,0.00,VWS V14.01,2013-08-27 21:00:00,
2013-08-27 14:20:00,95.7,64.5,22.63,ESE,122,3.1,8.3,36,0.00,,---,0.00,VWS V14.01,2013-08-27 21:20:00,
2013-08-27 14:40:00,96.1,64.8,22.63,ESE,108,0.0,8.3,36,0.00,,---,0.00,VWS V14.01,2013-08-27 21:40:00,
2013-08-27 15:00:00,91.8,61.8,22.63,SSW,208,5.8,10.5,37,0.00,,---,0.00,VWS V14.01,2013-08-27 22:00:00,
2013-08-27 15:20:00,90.7,60.9,22.63,South,171,5.4,11.0,37,0.00,,---,0.00,VWS V14.01,2013-08-27 22:20:00,
2013-08-27 15:40:00,93.7,62.8,22.63,South,191,2.7,10.5,36,0.00,,---,0.00,VWS V14.01,2013-08-27 22:40:00,
2013-08-27 16:00:00,88.7,59.9,22.63,South,184,5.4,8.3,38,0.00,,---,0.00,VWS V14.01,2013-08-27 23:00:00,
2013-08-27 16:20:00,89.6,62.1,22.63,SW,220,6.7,8.7,40,0.00,,---,0.00,VWS V14.01,2013-08-27 23:20:00,
2013-08-27 16:40:00,88.5,61.1,22.63,ESE,110,5.4,10.5,40,0.00,,---,0.00,VWS V14.01,2013-08-27 23:40:00,
2013-08-27 17:00:00,87.6,58.9,22.63,SSE,153,5.4,10.1,38,0.00,,---,0.00,VWS V14.01,2013-08-28 00:00:00,
2013-08-27 17:20:00,86.4,57.8,22.63,SSW,195,5.8,12.8,38,0.00,,---,0.00,VWS V14.01,2013-08-28 00:20:00,
2013-08-27 17:40:00,83.7,57.5,22.63,SE,124,2.2,8.3,41,0.00,,---,0.00,VWS V14.01,2013-08-28 00:40:00,
2013-08-27 18:00:00,77.4,51.2,22.63,South,177,3.6,12.3,40,0.00,,---,0.00,VWS V14.01,2013-08-28 01:00:00,
2013-08-27 18:20:00,75.9,51.8,22.63,South,177,4.0,7.6,43,0.00,,---,0.00,VWS V14.01,2013-08-28 01:20:00,
2013-08-27 18:40:00,75.6,51.5,22.63,SE,126,2.7,6.7,43,0.00,,---,0.00,VWS V14.01,2013-08-28 01:40:00,
2013-08-27 19:00:00,74.7,50.7,22.63,SW,227,0.0,5.8,43,0.00,,---,0.00,VWS V14.01,2013-08-28 02:00:00,
2013-08-27 19:19:00,72.5,49.4,22.63,North,8,2.2,4.9,44,0.00,,---,0.00,VWS V14.01,2013-08-28 02:19:00,
2013-08-27 19:40:00,70.5,49.3,22.63,ENE,70,0.0,4.9,47,0.00,,---,0.00,VWS V14.01,2013-08-28 02:40:00,
2013-08-27 20:00:00,68.0,49.7,22.63,West,260,0.0,2.2,52,0.00,,---,0.00,VWS V14.01,2013-08-28 03:00:00,
2013-08-27 20:20:00,67.5,49.8,22.63,NNE,25,2.7,2.7,53,0.00,,---,0.00,VWS V14.01,2013-08-28 03:20:00,
2013-08-27 20:40:00,67.1,49.4,22.63,NNW,332,0.0,3.1,53,0.00,,---,0.00,VWS V14.01,2013-08-28 03:40:00,
2013-08-27 21:00:00,65.8,49.2,22.63,NNW,327,0.0,3.1,55,0.00,,---,0.00,VWS V14.01,2013-08-28 04:00:00,
2013-08-27 21:20:00,64.8,49.2,22.63,NNW,327,0.0,0.0,57,0.00,,---,0.00,VWS V14.01,2013-08-28 04:20:00,
2013-08-27 21:40:00,63.7,50.0,22.63,NNW,327,0.0,0.0,61,0.00,,---,0.00,VWS V14.01,2013-08-28 04:40:00,
2013-08-27 22:00:00,63.7,50.0,22.63,NNW,327,0.0,0.0,61,0.00,,---,0.00,VWS V14.01,2013-08-28 05:00:00,
2013-08-27 22:20:00,62.6,49.8,22.63,NNW,327,0.0,0.0,63,0.00,,---,0.00,VWS V14.01,2013-08-28 05:20:00,
2013-08-27 22:40:00,60.6,49.6,22.63,NNW,327,0.0,0.0,67,0.00,,---,0.00,VWS V14.01,2013-08-28 05:40:00,
2013-08-27 23:00:00,61.9,50.0,22.63,NNE,18,2.2,2.2,65,0.00,,---,0.00,VWS V14.01,2013-08-28 06:00:00,
2013-08-27 23:20:00,61.9,50.0,22.63,NNE,20,0.0,2.7,65,0.00,,---,0.00,VWS V14.01,2013-08-28 06:20:00,
2013-08-27 23:40:00,61.5,49.7,22.63,NNE,14,2.2,2.7,65,0.00,,---,0.00,VWS V14.01,2013-08-28 06:40:00,